www.pogodaiklimat.ru

Погода и климат >> Архив погоды >> Аргентина >> Las Lomitas


ПОГОДА в Las Lomitas

  • Прогноз погоды в Las Lomitas
  • Монитор погоды в Las Lomitas
  • Климат города

АРХИВ ПОГОДЫ в Las Lomitas

Время (UTC), дата Ветер
(напр.,м/с)
 
Видим.   Явления Облачность Т
(С)
Тd
(С)
f
(%)
Тe
(С)
Тes
(С)
Комфортность P
(гПа)
Po
(гПа)
Тmin
(С)
Tmax
(С)
R
(мм)
R24
(мм)
S
(см)
00 14.02 Ю 1 20 км 4/0
[Ci]
+24.8 +17.5 64 +29 +29 душно 1016.1 1001.0 +23.2 +31.5
09 14.02 штиль 0 20 км 3/0
[Ci]
+18.9 +15.2 79 +20 +20 1019.7 1004.6
12 14.02 ЮВ 2 20 км 9/0
[Cs]
+22.0 +15.6 67 +26 +31 душно 1020.7 1005.6 +18.8 +24.8
15 14.02 ЮВ 1 20 км 6/0
[Cs]
+28.2 +15.3 45 +31 +51 опасность
солнечного
удара
1019.5 1004.5
18 14.02 ЮВ 3 20 км 8/0
[Cs]
+30.2 +13.8 37 +32 +44 жарко 1015.1 1000.1
21 14.02 ЮВ 1 20 км 6/0
[Cs]
+29.4 +16.0 44 +32 +35 душно 1013.6 998.6
00 15.02 ЮВ 1 20 км 4/0
[Ci]
+24.4 +18.1 68 +29 +29 душно 1013.8 998.8 +22.0 +31.0
09 15.02 штиль 0 20 км ясно +20.0 +16.7 81 +22 +22 комфорт 1015.1 1000.1
12 15.02 ЮВ 1 20 км 4/0
[Cs]
+26.2 +20.1 69 +32 +39 очень
душно
1015.8 1000.9 +19.5 +26.2
15 15.02 СВ 3 20 км 4/0
[Cs]
+33.2 +19.4 44 +39 +54 опасность
солнечного
удара
1014.6 999.8
18 15.02 СВ 3 20 км 5/3 1350 м
[Cu hum Cs]
+35.4 +17.3 34 +38 +47 очень
душно
1013.1 998.4
21 15.02 СВ 2 20 км 4/1 1350 м
[Cu hum Cs]
+34.6 +17.0 35 +38 +40 очень
душно
1010.8 996.0
00 16.02 СВ 1 20 км 3/0
[Ac trans]
+29.4 +19.4 55 +35 +35 очень
душно
1012.5 997.7 +26.2 +35.5
09 16.02 СВ 1 20 км 3/0
[Ac trans]
+23.0 +20.3 85 +30 +30 очень
душно
1013.3 998.5
12 16.02 СВ 1 20 км 5/0
[Ac trans Ci]
+27.6 +22.0 72 +36 +42 очень
душно
1014.9 1000.1 +23.0 +29.4
15 16.02 СВ 1 20 км 6/3 1500 м
[Cu hum Ac trans]
+34.6 +22.2 49 +44 +56 опасность
перегрева
1015.1 1000.4
18 16.02 СВ 1 20 км 4/3 1350 м
[Cu hum Ci]
+36.4 +15.6 29 +38 +51 опасность
солнечного
удара
1014.4 999.7
21 16.02 СВ 1 20 км 5/4 1350 м
[Cu hum Ci]
+36.6 +15.7 29 +38 +40 очень
душно
1011.8 997.2
00 17.02 СВ 2 20 км зарница 5/5 600 м
[Cb calv Ci]
+27.6 +16.5 51 +31 +31 душно 1014.2 999.4 +27.6 +37.0
09 17.02 ЮЗ 1 20 км ясно +22.4 +20.6 90 +29 +29 очень
душно
1014.4 999.7
12 17.02 СВ 1 20 км 10/10 750 м
[Sc]
+23.9 +21.0 84 +30 +30 очень
душно
1016.2 1001.3 +22.4 +27.6
15 17.02 СВ 2 20 км 10/10 750 м
[Sc]
+27.1 +21.6 72 +35 +35 очень
душно
1015.8 1000.9
18 17.02 СВ 1 20 км в посл. час ливневой дождь 10/10 1200 м
[Cu Sc]
+27.0 +23.5 81 +37 +37 очень
душно
1011.6 996.6 0.0
21 17.02 В 1 20 км {ливн. осадки} 9/9 1200 м
[St]
+28.6 +21.5 65 +36 +37 очень
душно
1009.6 994.8
00 18.02 В 1 20 км 10/10 1200 м
[St]
+25.6 +22.4 83 +34 +34 очень
душно
1010.6 995.7 +23.9 +29.0
09 18.02 штиль 0 20 км в посл. час морось 10/10 900 м
[St]
+23.2 +22.0 93 +32 +32 очень
душно
1008.5 993.7
12 18.02 СВ 1 20 км {морось} 10/10 900 м
[St]
+23.8 +21.7 88 +30 +30 очень
душно
1009.2 994.4 +25.6 0.0
15 18.02 СВ 2 20 км 8/8 1200 м
[Sc]
+27.2 +21.3 70 +34 +38 очень
душно
1007.5 992.6
18 18.02 СВ 2 20 км 6/6 900 м
[Cu hum Ci]
+29.0 +21.7 65 +37 +44 очень
душно
1007.4 992.6
21 18.02 штиль 0 18 км гроза, ливневой дождь 9/4 450 м
[Cb calv As op]
+26.0 +20.9 74 +33 +33 очень
душно
1006.1 991.2
00 19.02 В 1 20 км в посл. час гроза 6/6 450 м
[St]
+24.0 +22.5 91 +31 +31 очень
душно
1007.1 992.2 +23.8 +30.0 0.0
09 19.02 штиль 0 50 км ?/? +23.7 +22.7 94 +31 +31 очень
душно
1002.6 987.8
12 19.02 С 1 20 км слабая морось 10/10 300 м
[Frnb]
+23.1 +21.6 91 +31 +31 очень
душно
1004.3 989.4 +23.1 +24.0 0.0
15 19.02 В 1 20 км {морось} 4/4 450 м
[Cu hum]
+25.9 +21.8 78 +33 +47 очень
душно
1004.3 989.6
18 19.02 ЮВ 2 20 км 5/5 900 м
[Cu hum]
+31.4 +22.1 58 +40 +49 очень
душно
1002.8 988.1
21 19.02 ЮЗ 2 20 км 1/1 900 м
[Cu hum]
+32.6 +20.8 50 +40 +42 очень
душно
1001.4 986.8
00 20.02 ЮВ 1 20 км ясно +28.0 +21.8 69 +36 +36 очень
душно
1003.6 988.8 +23.1 +33.0
09 20.02 штиль 0 20 км ясно +21.2 +19.7 91 +26 +26 душно 1005.2 990.5
12 20.02 З 1 20 км ясно +25.4 +21.5 79 +32 +40 очень
душно
1006.8 992.1 +21.0 +28.0
15 20.02 СЗ 1 20 км 4/4 1500 м
[Cu hum]
+32.8 +20.0 47 +39 +53 опасность
солнечного
удара
1006.9 992.4

 

Местоположение метеостанции Las Lomitas (Аргентина): широта -24.70 долгота -60.58 высота над уровнем моря 130 м.

В архиве по умолчанию представлена погода в Las Lomitas за последнюю неделю. Архивные данные за месяц целиком и за предыдущие месяцы, начиная с января 2011 года, Вы можете получить, выбрав интересующий диапазон дат из раскрывающегося списка и нажав кнопку "Ввод!".

Внимание! Время в таблицах - всемирное. Для получения местного времени необходимо прибавить поправку, которая в Las Lomitas равна -3 ч.

Смотрите также архив погоды в соседних городах и на ближайших метеорологических станциях:

Погода в Gral. Bruguez (Парагвай) (177 км)
Погода в Pozo Colorado (Парагвай) (225 км)
Погода в Presidencia Roque Saenz Pena (Аргентина) (226 км)
Погода в Prats-Gil (Парагвай) (241 км)
Погода в Formosa (Аргентина) (289 км)
Погода в Mariscal Estigar (Парагвай) (299 км)
Погода в Asuncion (Парагвай) (316 км)
Погода в Pilar (Парагвай) (330 км)
Погода в Resistencia (Аргентина) (342 км)
Погода в Corrientes (Аргентина) (356 км)

Пояснения к столбцам:

Ветер - указаны скорость ветра в м/с - средняя за 10 мин, порывы в срок и между сроками (в фигурных скобках) и направление, откуда дует ветер: С - северный, СВ - северо-восточный, В - восточный, ЮВ - юго-восточный, Ю - южный, ЮЗ - юго-западный, З - западный, СЗ - северо-западный.
Видимость - горизонтальная дальность видимости в метрах или километрах. При видимости от 1 до 10 км при отсутствии осадков обычно наблюдается дымка, при ухудшении видимости до 1 км и менее - туман. В сухую погоду видимость может ухудшаться дымом, пылью или мглою.
Явления - указаны атмосферные явления, наблюдавшиеся в срок или в последний час перед сроком; фигурными скобками обозначены явления, наблюдавшиеся между сроками (за 1-3 часа до срока); квадратными скобками обозначены град или гололедные отложения с указанием их диаметра в мм.
Облачность - указаны через наклонную черту общая и нижняя облачность в баллах и высота нижней границы облаков в метрах; квадратными скобками обозначены формы облаков: Ci - перистые, Cs - перисто-слоистые, Cc - перисто-кучевые, Ac - высококучевые, As - высокослоистые, Sc - слоисто-кучевые, Ns - слоисто-дождевые, Cu - кучевые, Cb - кучево-дождевые. Подробнее классификацию облаков см. в Атласе облаков (PDF).
T - Температура воздуха - температура, измеренная на высоте 2 м над землей.
Td - Температура точки росы - температура, при понижении до которой содержащийся в воздухе водяной пар достигнет насыщения.
f - Относительная влажность воздуха - влажноcть воздуха, измеренная на высоте 2 м над землей.
Te - Эффективная температура - температура, которую ощущает одетый по сезону человек в тени. Характеристика душности погоды. При расчете учитывается влияние влажности воздуха и скорости ветра на теплоощущения человека.
Tes - Эффективная температура на солнце - температура, которую ощущает человек, с поправкой на солнечный нагрев. Характеристика знойности погоды. Зависит от высоты солнца над горизонтом, облачности и скорости ветра. Ночью, в пасмурную погоду, а также при ветре 12 м/с и более поправка равна нулю.
P - Атмосферное давление - приведенное к уровню моря атмосферное давление.
Po - Атмосферное давление - измеренное на уровне метеостанции атмосферное давление.
Tmin - Минимальная температура - минимум температуры воздуха на высоте 2 м над землей.
Tmax - Максимальная температура - максимум температуры воздуха на высоте 2 м над землей.
R - Количество осадков - Количество выпавших осадков за период времени, мм. При наведении курсора мыши на число - период времени, за который выпало указанное количество осадков.
R24 - Количество осадков - Количество выпавших осадков за 24 часа, мм.
S - Снежный покров - Высота снежного покрова, см. При наведении курсора мыши на число - состояние снежного покрова и степень покрытия местности в баллах.